Location: Maiden
(35.5760°N, 81.2120°W)
Time: 10:23:01
(UTC-04:00)

Vanguard 2 - Pass Details

Date: 07 August 2021
Orbit: 552 x 2938 km, 32.9° (Epoch: 18 September)

Event Time Altitude Azimuth Distance (km) Brightness Sun altitude
Exits shadow 04:01:00 20° 109° (ESE) 1,297 8.9 -27.1°
Drops below altitude 10° 04:02:27 10° 96° (E) 1,818 9.9 -26.9°
Sets 04:04:45 0° 88° (E) 2,753 11.0 -26.6°
